Vertical_Velocity
-0 -1 -1 -1 -6 -3 -1 -4 -0 -0 0 1 2 -0 -3 -1 -4 -4 -0 -1 3 1 -1 2 0 1 0 -1 -1 -1 0 0 1 2 -3 6 0 1 -0 -1 -0 -1 -0 -2 -3 1 -2 1 -2
-1 -0 -1 -1 -5 1 -4 -2 -1 -3 -1 -0 1 1 1 -2 -0 -1 -1 -1 2 2 -1 -0 2 -1 -0 2 -0 -0 -1 1 -2 2 -0 1 5 2 4 0 -1 -0 -1 1 -3 0 0 -2 -1
2 2 -2 -2 -0 -2 -3 -1 -2 -3 0 -1 -1 0 -0 -0 0 0 0 1 -2 3 -1 -1 3 1 -1 1 -0 1 -1 3 -0 1 4 1 3 5 8 7 1 1 -1 -1 -2 -3 -2 -1 -2
1 -3 -3 -2 -2 -5 -2 -0 -0 -1 0 1 1 -0 -1 -0 -0 1 1 1 -0 1 -2 2 1 1 1 -1 0 2 -0 2 -0 -2 -2 -2 0 -1 -1 2 4 1 1 1 0 -1 -1 -1 -1
-2 0 -1 0 -2 -2 -1 -1 1 -0 -0 0 0 -4 -2 -1 -0 0 1 1 -0 1 -0 -0 2 0 1 2 1 0 0 0 -0 -0 0 -2 -1 0 -3 -0 1 0 1 0 -0 0 0 -0 0
-2 -1 -1 -0 -2 -2 -2 -1 1 -0 -1 -4 -0 1 -3 -2 -1 0 2 0 2 1 -0 0 2 2 5 3 -1 1 0 -0 -1 1 1 0 1 -0 -1 -0 -1 -1 -0 -1 -3 0 -1 -1 0
-5 -2 -2 -0 -2 -1 -3 1 0 -2 0 -8 -1 0 -0 -1 -2 -1 1 1 0 2 0 0 3 3 2 1 2 1 -0 2 -3 -1 1 1 3 2 -0 -0 0 -1 -0 1 -1 0 1 -0 -1
-3 -3 1 -2 -1 -7 -2 1 1 1 -10 3 0 -3 -4 -1 1 0 1 2 1 3 3 -0 2 4 0 2 1 1 2 -7 -2 -0 2 2 -2 1 1 2 2 3 -0 1 1 0 -1 0 1
0 -0 -0 -3 -1 -6 -0 1 2 2 1 0 -0 0 -2 3 -2 3 1 0 2 2 1 2 -2 3 0 -0 0 3 2 0 0 -1 0 -0 1 -1 -0 3 1 1 -2 0 -1 -1 -1 -1 1
-0 1 -5 -4 -2 -1 -1 1 0 -0 0 -1 -2 -2 1 0 2 -1 -3 -2 -1 -4 -4 3 3 4 3 3 2 1 3 -1 -1 -3 1 1 -2 2 -2 1 -0 -0 -1 0 1 1 1 0 -1
-0 -2 -2 -4 -3 2 0 -0 1 1 -1 -3 -4 0 2 5 1 3 2 -2 -2 7 1 -2 5 2 2 -1 2 1 -1 -1 -2 -0 -3 -1 -1 -0 -1 -0 5 2 1 -1 1 0 1 0 -1
3 -1 -1 -2 -2 3 -1 1 -0 2 -10 -2 1 1 2 0 -1 -5 -2 -5 -5 -5 3 1 3 1 1 1 -1 -3 -1 -4 -3 0 -3 -4 -0 -3 1 1 1 1 1 -1 1 0 1 1 0
3 -2 0 0 1 -0 5 -2 -3 -5 -4 -4 2 -0 -1 1 2 3 7 9 4 -5 -1 0 2 1 1 1 0 -1 -3 -3 -2 0 -0 -1 -1 -4 -2 1 3 1 2 -1 -0 0 -0 1 -0
2 2 -2 -2 -4 4 8 -6 12 -11 -5 -1 -4 -1 0 0 -3 7 3 1 2 2 -1 2 -2 8 5 3 1 -3 -2 -5 -3 -1 1 0 2 -1 -2 -0 3 2 3 -1 2 1 1 0 1
-2 1 -3 -4 -3 -3 2 -1 -5 -10 -1 -3 -1 -8 2 -3 8 -3 2 1 -0 -2 3 -2 1 5 4 5 5 3 0 2 -3 -2 1 -0 1 1 -1 -2 1 -1 1 -2 1 1 1 1 -1
0 4 2 -1 2 -5 2 -30 -10 0 4 -5 -4 -2 -7 -3 -1 -1 4 0 1 3 -2 3 1 -0 3 3 8 1 -0 -0 -0 -2 -0 1 1 1 -1 -3 -0 -1 1 1 1 1 1 1 1
2 -2 2 -9 -1 0 6 -13 -10 -1 3 -3 -1 -4 -3 -7 -1 0 2 3 -1 -2 -0 -1 2 2 0 3 7 7 9 3 2 -1 -1 1 2 1 -1 0 0 0 1 1 1 0 2 -0 1
-1 1 -2 -1 -4 6 1 -10 -4 -2 4 -3 2 1 1 1 2 3 4 11 13 7 2 4 3 1 1 7 5 7 7 4 4 1 0 1 2 1 0 2 2 0 0 1 -0 1 0 2 2
4 5 2 -11 -10 16 -4 -2 -8 -6 3 1 -2 -1 1 5 -1 -2 -4 -3 2 5 5 -0 0 -2 5 3 4 9 -2 -3 2 1 3 1 1 0 -2 -1 1 1 1 -0 1 -1 2 0 2
0 2 -10 -11 -3 22 -1 -10 -6 -0 -5 -2 -1 1 1 3 1 -2 -2 -1 2 1 5 4 0 4 1 -1 2 2 -4 -1 9 8 4 3 2 2 0 -3 -0 2 0 -0 1 1 -6 0 -0
-3 2 -3 5 -7 -3 9 -8 -4 -6 4 2 2 2 -0 0 3 0 -2 0 1 1 2 2 5 3 0 3 6 6 8 12 4 1 4 -1 3 -1 0 -2 -2 -0 1 -0 -0 -1 -0 -3 -1
2 1 3 1 6 -0 1 -16 -3 -2 3 1 2 3 3 -2 3 4 -2 2 3 3 1 0 1 6 2 8 1 -1 -7 -7 -11 -7 6 -1 3 3 0 2 -3 -1 -1 -0 1 1 -0 -1 -1
-9 5 5 3 3 11 -13 15 -19 4 5 3 2 3 3 1 2 1 -0 -0 2 3 2 1 -1 1 2 4 1 3 3 -1 4 1 1 6 4 -0 4 3 1 -3 -1 2 -1 -1 -2 -0 -2
-1 2 -2 3 4 14 -15 11 1 1 5 4 3 1 3 2 4 0 1 -1 0 2 3 1 4 3 6 3 -1 1 1 -1 1 -1 1 -2 3 5 5 2 2 3 -2 -2 0 -0 2 1 1
-4 -2 -4 1 10 -12 -3 14 9 1 1 6 3 2 2 2 7 -1 1 -2 1 -0 1 4 2 0 2 5 2 1 2 1 3 1 -0 0 -1 -4 -4 -1 -1 -8 -1 0 -0 -0 2 -2 -1
-0 3 3 2 3 -3 1 3 8 5 2 3 4 4 2 -2 6 1 2 1 1 0 1 1 2 3 2 5 5 3 4 9 4 1 -0 -1 -0 0 4 1 -0 -1 2 2 3 -1 2 0 -0
-7 -3 3 4 -1 9 -2 7 5 -4 -4 -4 0 -2 0 1 -1 4 3 2 1 1 -1 -0 2 3 2 2 3 -0 0 3 0 2 2 1 3 -0 1 4 3 5 1 0 3 0 -3 -0 3
-7 -0 -10 -2 2 -1 2 1 7 -6 -2 -1 -4 1 1 1 -0 1 2 3 3 2 1 2 1 0 2 2 1 2 1 -0 -0 3 3 -0 2 0 -0 2 3 4 3 2 -0 1 5 -3 0
-6 -3 -3 6 3 4 2 5 6 4 4 3 2 3 4 2 -0 3 2 4 5 3 0 1 1 -0 -0 1 1 3 2 0 3 2 2 0 4 2 0 1 3 1 2 1 -1 1 3 1 4
-2 -2 1 3 -6 0 1 4 2 3 3 2 2 3 4 3 1 2 2 3 4 4 1 0 0 -0 0 -1 -0 0 1 2 -0 -1 0 4 1 1 -4 -0 0 -1 -1 2 -1 8 5 -2 -2
Height
1523 1524 1526 1528 1536 1538 1538 1528 1522 1521 1518 1514 1514 1513 1512 1511 1510 1514 1505 1507 1511 1514 1519 1524 1528 1532 1536 1539 1542 1545 1547 1550 1552 1554 1556 1559 1560 1561 1563 1565 1567 1568 1568 1569 1570 1571 1573 1574 1575
1523 1524 1527 1527 1537 1540 1533 1522 1520 1517 1514 1513 1513 1512 1511 1508 1507 1506 1506 1508 1512 1515 1519 1524 1528 1532 1536 1538 1541 1544 1547 1550 1552 1554 1556 1558 1560 1561 1563 1565 1567 1568 1569 1570 1572 1573 1574 1575 1576
1523 1525 1527 1528 1538 1537 1530 1518 1514 1514 1513 1514 1514 1511 1509 1508 1506 1506 1506 1508 1511 1516 1520 1524 1528 1532 1535 1539 1541 1544 1547 1550 1552 1555 1556 1558 1560 1562 1564 1565 1567 1569 1570 1571 1572 1574 1575 1576 1578
1523 1526 1530 1532 1533 1529 1521 1515 1515 1514 1512 1512 1512 1511 1508 1506 1506 1507 1507 1510 1512 1516 1520 1525 1529 1532 1535 1539 1542 1544 1547 1550 1552 1554 1556 1558 1561 1562 1564 1566 1568 1569 1570 1571 1572 1574 1575 1576 1578
1525 1526 1531 1535 1533 1525 1519 1516 1516 1515 1513 1512 1512 1509 1506 1505 1506 1506 1508 1511 1513 1516 1520 1525 1529 1532 1536 1538 1541 1544 1546 1549 1552 1553 1556 1557 1560 1562 1564 1566 1568 1569 1570 1571 1572 1574 1576 1577 1579
1525 1527 1535 1532 1529 1522 1517 1513 1515 1515 1512 1511 1511 1509 1505 1504 1505 1506 1508 1511 1514 1516 1520 1524 1529 1532 1535 1538 1540 1543 1545 1548 1551 1552 1553 1555 1558 1560 1563 1566 1567 1569 1570 1571 1572 1574 1576 1578 1580
1524 1529 1532 1534 1529 1521 1511 1509 1511 1508 1508 1508 1507 1506 1502 1502 1504 1506 1508 1511 1514 1517 1520 1524 1528 1532 1535 1537 1540 1543 1545 1548 1548 1550 1552 1554 1556 1559 1562 1565 1568 1570 1571 1572 1572 1574 1577 1579 1580
1523 1526 1529 1526 1522 1515 1506 1505 1504 1505 1502 1502 1504 1502 1501 1501 1502 1505 1507 1510 1513 1516 1519 1522 1527 1530 1533 1536 1539 1542 1545 1546 1548 1550 1552 1554 1555 1558 1561 1565 1568 1569 1570 1572 1573 1575 1577 1580 1582
1522 1527 1526 1519 1521 1511 1506 1506 1502 1501 1500 1499 1498 1498 1499 1499 1501 1503 1505 1508 1512 1514 1518 1521 1525 1528 1531 1535 1539 1542 1544 1546 1546 1549 1552 1553 1555 1558 1561 1564 1567 1569 1570 1571 1573 1576 1578 1581 1583
1519 1523 1514 1509 1508 1505 1504 1504 1502 1501 1499 1497 1496 1496 1497 1498 1498 1499 1501 1503 1508 1511 1515 1520 1524 1527 1529 1533 1536 1540 1543 1544 1545 1547 1550 1552 1553 1556 1559 1564 1566 1568 1570 1572 1574 1576 1579 1581 1583
1513 1508 1505 1503 1504 1505 1503 1501 1500 1498 1497 1495 1494 1494 1494 1494 1495 1497 1498 1501 1504 1508 1513 1518 1521 1525 1528 1530 1534 1538 1541 1543 1545 1546 1548 1550 1552 1555 1558 1562 1565 1567 1570 1572 1574 1577 1579 1582 1584
1513 1504 1504 1501 1502 1502 1501 1498 1496 1495 1493 1493 1493 1492 1491 1492 1492 1494 1495 1498 1502 1506 1509 1514 1518 1522 1525 1529 1532 1535 1539 1542 1544 1545 1547 1548 1551 1554 1558 1562 1565 1567 1570 1572 1574 1577 1580 1582 1585
1508 1503 1502 1500 1501 1499 1498 1495 1496 1488 1489 1490 1490 1489 1488 1489 1490 1492 1494 1496 1499 1503 1507 1511 1514 1519 1522 1525 1529 1532 1536 1539 1542 1544 1545 1547 1550 1553 1557 1560 1563 1566 1569 1571 1574 1577 1580 1583 1585
1504 1502 1499 1497 1497 1497 1496 1492 1495 1476 1486 1485 1487 1486 1485 1485 1486 1489 1491 1494 1496 1500 1504 1508 1510 1514 1518 1521 1525 1529 1533 1537 1539 1542 1543 1545 1548 1551 1555 1558 1562 1565 1568 1570 1573 1576 1579 1582 1585
1504 1499 1493 1491 1492 1491 1494 1487 1475 1477 1482 1480 1480 1482 1483 1482 1484 1485 1488 1490 1493 1497 1501 1503 1507 1510 1514 1517 1522 1525 1529 1533 1536 1540 1542 1544 1546 1548 1552 1556 1560 1563 1566 1568 1572 1575 1578 1582 1585
1503 1501 1492 1479 1482 1484 1490 1466 1459 1467 1473 1470 1473 1476 1477 1480 1480 1482 1484 1486 1490 1494 1496 1500 1503 1506 1510 1513 1517 1521 1525 1529 1533 1536 1539 1541 1544 1547 1550 1554 1557 1560 1563 1566 1570 1574 1577 1581 1584
1502 1493 1488 1478 1481 1483 1483 1460 1458 1461 1463 1460 1462 1465 1469 1473 1475 1477 1480 1483 1486 1489 1492 1495 1498 1502 1506 1510 1513 1517 1521 1525 1529 1533 1536 1539 1541 1544 1548 1552 1555 1559 1562 1564 1568 1572 1576 1579 1582
1496 1499 1484 1481 1477 1475 1472 1458 1457 1458 1458 1455 1454 1455 1457 1462 1467 1473 1475 1478 1480 1483 1486 1490 1492 1496 1501 1506 1509 1513 1517 1521 1525 1529 1533 1536 1538 1542 1546 1550 1553 1556 1559 1562 1566 1570 1574 1578 1581
1502 1497 1486 1474 1475 1474 1464 1455 1448 1452 1452 1451 1451 1452 1453 1454 1457 1461 1464 1467 1471 1475 1479 1483 1487 1490 1495 1499 1503 1507 1510 1516 1519 1525 1529 1532 1536 1539 1543 1547 1550 1553 1556 1560 1563 1567 1572 1575 1579
1502 1498 1482 1474 1474 1470 1459 1451 1443 1446 1443 1444 1444 1446 1447 1449 1448 1451 1454 1458 1460 1465 1471 1476 1480 1484 1488 1493 1498 1501 1506 1511 1515 1519 1524 1528 1532 1535 1539 1543 1546 1550 1553 1556 1559 1564 1568 1572 1576
1500 1499 1489 1485 1471 1465 1465 1455 1442 1436 1438 1439 1440 1442 1443 1447 1444 1445 1447 1450 1452 1456 1461 1466 1473 1478 1482 1487 1491 1495 1501 1506 1508 1513 1517 1523 1527 1531 1535 1539 1543 1546 1549 1552 1556 1560 1565 1569 1573
1505 1489 1487 1482 1480 1460 1452 1433 1425 1425 1432 1438 1440 1443 1442 1445 1444 1441 1443 1446 1447 1448 1453 1458 1465 1471 1476 1481 1484 1488 1493 1497 1502 1507 1512 1517 1522 1526 1530 1535 1539 1543 1546 1548 1552 1557 1561 1566 1569
1497 1493 1489 1482 1477 1467 1448 1446 1416 1418 1426 1440 1443 1445 1444 1444 1442 1440 1441 1443 1444 1445 1447 1452 1457 1464 1470 1474 1479 1483 1487 1493 1498 1502 1507 1511 1517 1521 1525 1530 1534 1539 1542 1545 1549 1553 1557 1561 1565
1493 1489 1480 1470 1468 1455 1437 1436 1434 1453 1438 1440 1446 1449 1448 1445 1439 1441 1441 1442 1443 1443 1443 1447 1452 1459 1465 1469 1473 1477 1482 1487 1492 1496 1501 1506 1511 1514 1518 1524 1528 1534 1538 1541 1545 1549 1553 1556 1560
1493 1493 1487 1467 1448 1434 1421 1421 1473 1467 1466 1454 1450 1452 1451 1449 1441 1441 1440 1441 1442 1441 1442 1443 1447 1453 1458 1463 1468 1472 1477 1482 1487 1491 1496 1500 1504 1508 1513 1519 1523 1528 1532 1536 1540 1544 1548 1551 1555
1496 1494 1488 1478 1447 1423 1408 1416 1480 1476 1472 1466 1457 1456 1453 1449 1446 1443 1442 1441 1441 1440 1441 1442 1444 1448 1453 1457 1462 1467 1472 1477 1482 1486 1490 1494 1499 1504 1509 1514 1518 1522 1527 1531 1535 1537 1542 1546 1549
1499 1503 1492 1484 1464 1459 1431 1461 1463 1474 1475 1469 1462 1458 1457 1454 1452 1446 1443 1441 1440 1439 1440 1441 1442 1444 1447 1451 1456 1461 1466 1471 1476 1481 1485 1489 1494 1499 1504 1508 1512 1516 1520 1525 1529 1533 1536 1539 1543
1504 1498 1502 1483 1477 1449 1457 1478 1489 1482 1477 1473 1468 1465 1462 1459 1456 1450 1445 1443 1441 1439 1439 1440 1440 1441 1444 1447 1451 1455 1460 1465 1470 1475 1480 1484 1489 1494 1498 1502 1506 1510 1514 1518 1523 1526 1530 1533 1536
1510 1514 1508 1503 1485 1457 1453 1493 1499 1494 1488 1484 1477 1473 1468 1463 1460 1455 1449 1445 1442 1440 1438 1438 1438 1439 1441 1443 1446 1451 1455 1460 1464 1469 1474 1478 1483 1487 1492 1496 1500 1503 1507 1511 1515 1519 1523 1526 1530
1516 1522 1516 1511 1488 1484 1483 1504 1504 1500 1496 1490 1482 1479 1473 1469 1465 1460 1454 1448 1443 1440 1439 1438 1437 1438 1439 1440 1443 1446 1450 1454 1459 1463 1468 1473 1477 1482 1487 1490 1493 1497 1501 1504 1507 1509 1513 1519 1522